Regional Weather Roundup
Issued by NWS

Home | Current Version | Previous Version | Text Only | Print | Product List | Glossary On
Versions: 1 2 3 4 5 6 7 8 9 10 11 12 13 14 15 16 17 18 19 20 21 22 23 24 25 26 27 28 29 30 31 32 33 34 35 36 37 38 39 40 41 42 43 44 45 46 47 48 49 50
245
ASUS43 KMKX 111020
RWRWI

WISCONSIN REGIONAL WEATHER ROUNDUP
NATIONAL WEATHER SERVICE MILWAUKEE/SULLIVAN WI
400 AM CST MON DEC 11 2017

NOTE: "FAIR" INDICATES FEW OR NO CLOUDS BELOW 12,000 FEET WITH NO
SIGNIFICANT WEATHER AND/OR OBSTRUCTIONS TO VISIBILITY.

WIZ001-002-006>008-014>016-023>028-111100-
NORTHWEST WISCONSIN

CITY           SKY/WX    TMP DP  RH WIND       PRES   REMARKS
SUPERIOR ARPT  CLOUDY    19  17  94 CALM      29.81F
ASHLAND        LGT SNOW  18  14  84 CALM      29.83S FOG
HAYWARD        FLURRIES  20  16  84 S7        29.79F WCI  11
SIREN          LGT SNOW  23  21  93 S3        29.80F
CUMBERLAND     LGT SNOW  21  19  93 SE7       29.80F WCI  13
RICE LAKE      LGT SNOW  21  20  96 CALM      29.83S
CHETEK           N/A     21  19  93 SE5       29.83F WCI  15
LADYSMITH      LGT SNOW  21  19  92 S7        29.83F WCI  12
EAU CLAIRE     LGT SNOW  24  21  88 S10       29.84F FOG     WCI  14
MENOMONIE      LGT SNOW  25  24  95 SE6       29.84F WCI  18
NEW RICHMOND   LGT SNOW  25  23  93 S9        29.81F WCI  15
OSCEOLA        LGT SNOW  26  26 100 S9        29.83F WCI  17
$$

WIZ003>005-009-010-017-018-111100-
NORTH CENTRAL WISCONSIN

CITY           SKY/WX    TMP DP  RH WIND       PRES   REMARKS
MANITOWISH WTR LGT SNOW  14  14 100 S7        29.79F WCI   4
ARBOR VITAE    LGT SNOW  17  13  84 S5        29.80F WCI  10
WOODRUFF       LGT SNOW  17  13  84 S5        29.80F WCI  10
RHINELANDER    LGT SNOW  16  12  84 S5        29.82F FOG     WCI   9
EAGLE RIVER    CLOUDY    14  10  82 CALM      29.82F
LAND O LAKES   CLOUDY    14  11  87 S3        29.82F
PHILLIPS       LGT SNOW  16  15  93 SE6       29.80F WCI   8
TOMAHAWK       LGT SNOW  16  13  87 S3        29.84F
MEDFORD        LGT SNOW  18  15  91 S9        29.82F WCI   6
MERRILL        LGT SNOW  18  14  82 S5        29.86F WCI  11
$$

WIZ029-030-035-036-043>047-111100-
CENTRAL WISCONSIN

CITY           SKY/WX    TMP DP  RH WIND       PRES   REMARKS
WAUSAU         LGT SNOW  19  15  84 SE7       29.86F FOG     WCI  10
MOSINEE        LGT SNOW  19  18  93 SE7       29.88F WCI  10
MARSHFIELD     LGT SNOW  20  18  92 S9        29.85F FOG     WCI   9
STEVENS POINT  MIX PCPN  19  17  95 SE6       29.91F WCI  10
WAUPACA        FLURRIES  24  18  77 SE3       29.94F
WAUTOMA        LGT SNOW  21  17  84 SE5       29.94F FOG     WCI  15
WISC RAPIDS    LGT SNOW  20  18  92 S6        29.91F FOG     WCI  12
CAMP DOUGLAS   LGT SNOW  23  21  93 S5        29.90F FOG     WCI  17
$$

WIZ011>013-019>022-031-037>040-048>050-111100-
NORTHEAST WISCONSIN

CITY           SKY/WX    TMP DP  RH WIND       PRES   REMARKS
ANTIGO         CLOUDY    17  13  85 SE9       29.86F WCI   5
SHAWANO        CLOUDY    22  14  72 CALM      29.95F
OCONTO         CLOUDY    17  13  82 CALM      29.95F
STURGEON BAY   MOCLDY    18  11  74 E5        29.97F WCI  11
GREEN BAY      MOCLDY    21  14  74 SE6       29.97F WCI  13
MANITOWOC      CLOUDY    19  14  79 CALM      29.98F
APPLETON       CLOUDY    21  14  73 SE6       29.94F WCI  14
CLINTONVILLE   CLOUDY    21  16  79 SE7       29.94F WCI  13
OSHKOSH        CLOUDY    22  18  85 S3        29.95F
$$

WIZ032>034-041-042-053>061-111100-
SOUTHWEST WISCONSIN

CITY           SKY/WX    TMP DP  RH WIND       PRES   REMARKS
LA CROSSE      LGT SNOW  27  24  89 S10       29.90F FOG     WCI  17
SPARTA         LGT SNOW  24  22  95 S5        29.92F VSB 1   WCI  18
VIROQUA        CLOUDY    23  23 100 S9        29.90F WCI  13
BOSCOBEL       LGT SNOW  26  22  84 CALM      29.95F FOG
PRAIRIE DU CHI CLOUDY    27  21  77 E3        29.95S
PLATTEVILLE    PTCLDY    26  25  94 SE8       29.92F WCI  18
$$

WIZ056-057-062-063-064-067-068-111100-
SOUTH CENTRAL WISCONSIN

CITY           SKY/WX    TMP DP  RH WIND       PRES   REMARKS
REEDSBURG      LGT SNOW  23  20  89 S5        29.93F WCI  17
BARABOO/DELLS  LGT SNOW  23  19  86 S8        29.94F WCI  14
LONE ROCK      LGT SNOW  24  22  91 E3        29.96F FOG
MINERAL POINT  FLURRIES  27  27 100 SE6       29.92F WCI  20
MADISON        LGT SNOW  24  21  88 S7        29.95F FOG     WCI  16
MIDDLETON      CLOUDY    26  22  85 S6        29.96F WCI  19
WATERTOWN      CLOUDY    22  18  84 CALM      29.97F
MONROE         CLOUDY    23  21  93 S7        29.96F WCI  15
JANESVILLE     FLURRIES  27  21  80 S3        29.99R
$$

WIZ051-052-058>065-066-070>072-111100-
SOUTHEAST WISCONSIN

CITY           SKY/WX    TMP DP  RH WIND       PRES   REMARKS
MILWAUKEE      CLOUDY    23  17  78 CALM      30.00S
WAUKESHA       CLOUDY    21  18  86 CALM      29.99S
MILWAUKEE/TIMM CLOUDY    23  18  80 CALM      30.01R
RACINE         CLOUDY    23  18  81 W3        30.01S
BURLINGTON     PTCLDY    29  29  98 CALM      29.99S
KENOSHA        CLOUDY    24  17  74 CALM      30.00R
FOND DU LAC    CLOUDY    23  16  74 S5        29.96F WCI  17
SHEBOYGAN      CLOUDY    22  18  85 CALM      29.97F
WEST BEND      CLOUDY    21  18  86 CALM      29.98S
JUNEAU         CLOUDY    21  17  83 SE3       29.97F
$$

LSZ147-162-111100-
LAKE SUPERIOR

STATION/POSITION TIME  TEMP    WIND        PRES    WAVE
                       AIR SEA DIR/SP/G            HT/PER
                 (UTC) (F)     (DEG/KT/KT) (MB)    (FT/S)
DEVILS ISLAND    1000   21     200/ 12/ 16 1011.0F
SAXON HARBOR     0940   19                 1009.8F
$$

LMZ867-665-643>646-111100-
LAKE MICHIGAN

STATION/POSITION TIME  TEMP    WIND        PRES    WAVE
                       AIR SEA DIR/SP/G            HT/PER
                 (UTC) (F)     (DEG/KT/KT) (MB)    (FT/S)
NORTHPORT PIER   0940   17     180/  2/  3 1015.2F
KEWAUNEE LAKESHO 0954   18     300/  2/  3 1014.4F
SHEBOYGAN LAKESH 1000   26     240/  5/  6 1016.0F
PORT WASHINGTON  0940   24     270/  3/  5 1016.6F
MILWAUKEE LAKESH 1000   26     230/  6/  7   N/A
KENOSHA   LAKESH 1000   26     240/  3/  5 1016.3
$$

TC  - TEMPERATURE IN CELSIUS
VSB - VISIBILITY IN STATUTE MILES
WCI - WIND CHILL INDEX
HX  - HEAT INDEX





USA.gov is the U.S. government's official web portal to all federal, state and local government web resources and services.